Aulavik National Park,

12:32 AM MDT on October 20, 2017 (GMT -0600)
Aulavik National Park

Weather History for CWSQ - March, 2014

Change the Weather History Date:

Monday, March 24, 2014

  Actual Average Record
Temperature  
Mean Temperature -8 °F -  
Max Temperature -5 °F - - ()
Min Temperature -12 °F - - ()
Degree Days  
Heating Degree Days 74    
Moisture  
Dew Point -13 °F    
Average Humidity 78    
Maximum Humidity 81    
Minimum Humidity 65    
Precipitation  
Precipitation 0.00 in - - ()
Sea Level Pressure  
Sea Level Pressure 30.31 in    
Wind  
Wind Speed 13 mph ()    
Max Wind Speed 25 mph    
Max Gust Speed -    
T = Trace of Precipitation, MM = Missing Value Source: Averaged Metar Reports

Daily Weather History Graph

Daily Weather History Graph

Search for Another Location

Airport or City:

Trip Planner

Search our weather history database for the weather conditions in past years. The results will help you decide how hot, cold, wet, or windy it might be!

Date:

Astronomy

Mar. 24, 2014 Rise Set
Actual Time 7:32 AM MDT 8:42 PM MDT
Civil Twilight 6:12 AM MDT 10:03 PM MDT
Nautical Twilight 4:13 AM MDT 12:08 AM MDT
Astronomical Twilight Sun does not rise Sun does not rise
Moon No Moon Rise No Moon Set
Length of Visible Light 15h 50m
Length of Day
13h 10m
Last Quarter, 42% of the Moon is Illuminated
Mar 24
Last Quarter
Mar 30
New
Apr 7
First Quarter
Apr 15
Full
Apr 22
Last Quarter

Hourly Weather History & Observations

Time (MDT) Temp. Windchill Dew Point Humidity Pressure Visibility Wind Dir Wind Speed Gust Speed Precip Events Conditions
12:00 AM -7 °F - -12 °F 66% 30.33 in - West 6.9 mph - -  
12:00 AM -7.2 °F -21.7 °F -12.5 °F 78% 30.33 in - West 6.9 mph - N/A   Unknown
1:00 AM -6.5 °F -24.3 °F -12.1 °F 77% 30.30 in - West 10.4 mph - N/A   Unknown
2:00 AM -5.8 °F -25.2 °F -11.0 °F 78% 30.28 in - West 12.7 mph - N/A   Unknown
3:00 AM -6.0 °F -27.7 °F -10.7 °F 80% 30.26 in - West 16.1 mph - N/A   Unknown
4:00 AM -5.4 °F -20.8 °F -10.3 °F 80% 30.26 in - West 8.1 mph - N/A   Unknown
5:00 AM -5.3 °F -25.4 °F -10.3 °F 79% - - WNW 13.8 mph - N/A   Unknown
6:00 AM -6 °F - -10 °F 72%  in - NW 16.1 mph - -  
6:00 AM -5.4 °F -27.0 °F -10.3 °F 80% - - NW 16.1 mph - N/A   Unknown
7:00 AM -6.3 °F -28.2 °F -10.8 °F 81% 30.23 in - NW 16.1 mph - N/A   Unknown
8:00 AM -6.3 °F -29.5 °F -10.8 °F 81% 30.24 in - NNW 18.4 mph - N/A   Unknown
9:00 AM -11.2 °F -33.7 °F -16.4 °F 78% 30.27 in - NNW 15.0 mph - N/A   Unknown
10:00 AM -12.6 °F -35.5 °F -18.0 °F 77% 30.28 in - NNW 15.0 mph - N/A   Unknown
11:00 AM -11.7 °F -35.9 °F -17.0 °F 78% 30.30 in - NNW 17.3 mph - N/A   Unknown
12:00 PM -11 °F - -16 °F 65% 30.31 in - NNW 17.3 mph - -  
12:00 PM -11.4 °F -34.7 °F -16.4 °F 78% 30.31 in - NNW 16.1 mph - N/A   Unknown
1:00 PM -10.5 °F -33.5 °F -15.2 °F 80% 30.32 in - NNW 16.1 mph - N/A   Unknown
2:00 PM -9.4 °F -32.8 °F -14.3 °F 79% 30.32 in - NW 17.3 mph - N/A   Unknown
3:00 PM -10.1 °F -33.8 °F -15.2 °F 78% 30.34 in - NW 17.3 mph - N/A   Unknown
4:00 PM -9.8 °F -35.1 °F -14.6 °F 79% 30.35 in - NW 20.7 mph - N/A   Unknown
5:00 PM -9.2 °F -34.4 °F -14.3 °F 79% 30.34 in - NW 20.7 mph - N/A   Unknown
6:00 PM -9 °F - -14 °F 67% 30.35 in - NW 25.3 mph - -  
6:00 PM -9.2 °F -36.0 °F -14.1 °F 79% 30.35 in - NW 24.2 mph - N/A   Unknown
7:00 PM -8.5 °F -33.5 °F -13.4 °F 79% 30.35 in - WNW 20.7 mph - N/A   Unknown
8:00 PM -9.0 °F -34.8 °F -13.7 °F 80% 30.35 in - West 21.9 mph - N/A   Unknown
9:00 PM -7.4 °F -33.6 °F -11.9 °F 81% 30.34 in - WNW 24.2 mph - N/A   Unknown
10:00 PM -7.8 °F -29.3 °F -12.1 °F 81% 30.34 in - West 15.0 mph - N/A   Unknown
11:00 PM -9.0 °F -34.8 °F -13.4 °F 81% 30.32 in - NW 21.9 mph - N/A   Unknown